Overview Statistics Trail Chart Weather Telemetry Raw packets
 

This is the latest recevied weather packets stored in our database for station/object KC5DAQ-2. If no packets are shown the sender has not sent any weather packets the latest 10 day(s).

<< 47 48 49 50 51 52 53 >>
Time Temp. Humidity Pressure Rain* Wind** Luminosity Snow
1788648724 29.44° C 85% 1004.1 hPa 7.62 mm - 14 W/m² -
1788648663 29.44° C 85% 1004.1 hPa 7.62 mm - 14 W/m² -
1788648606 29.44° C 84% 1004.1 hPa 7.62 mm - 14 W/m² -
1788648543 29.44° C 84% 1004.1 hPa 7.62 mm - 14 W/m² -
1788648483 29.44° C 84% 1004 hPa 7.62 mm - 14 W/m² -
1788648424 30° C 84% 1004.1 hPa 7.62 mm - 14 W/m² -
1788648363 30° C 84% 1004.1 hPa 7.62 mm - 14 W/m² -
1788648302 30° C 84% 1004 hPa 7.62 mm - 14 W/m² -
1788648247 30° C 84% 1004.1 hPa 7.62 mm - 14 W/m² -
1788648185 30.56° C 84% 1004 hPa 7.62 mm - 14 W/m² -
1788648124 30.56° C 83% 1004.1 hPa 7.62 mm - 14 W/m² -
1788648062 30.56° C 83% 1004 hPa 7.37 mm - 14 W/m² -
1788648007 30.56° C 83% 1004.2 hPa 7.37 mm - 14 W/m² -
1788647944 30.56° C 82% 1004.2 hPa 7.11 mm - 14 W/m² -
1788647884 31.11° C 82% 1004.3 hPa 6.86 mm - 12 W/m² -
1788647823 31.11° C 82% 1004.3 hPa 6.6 mm - 12 W/m² -
1788647767 31.11° C 82% 1004.4 hPa 6.1 mm - 12 W/m² -
1788647703 31.11° C 82% 1004.4 hPa 5.59 mm - 12 W/m² -
1788647644 31.67° C 82% 1004.3 hPa 5.33 mm - 12 W/m² -
1788647584 31.67° C 82% 1004.3 hPa 5.08 mm - 14 W/m² -
1788647522 31.67° C 82% 1004.2 hPa 4.83 mm - 14 W/m² -
1788647463 31.67° C 82% 1004.2 hPa 4.32 mm - 12 W/m² -
1788647404 31.67° C 81% 1004.1 hPa 3.81 mm - 12 W/m² -
1788647342 32.22° C 81% 1004.1 hPa 3.3 mm - 12 W/m² -
1788647287 32.22° C 82% 1004.2 hPa 3.05 mm - 12 W/m² -

* Rain latest hour (hover to see other rain measurements)
** Current wind speed in m/s (hover to see current wind gust speed)